Volver al catálogo

ONEWEB-0283

ActivoComunicacionesPO
NORAD 49001·PAYLOAD·🇬🇧 United Kingdom

Lanzado Jul 1, 2021 desde Vostochny Cosmodrome

Loading…

Próximos Pases (próximas 24 horas)

TLE

ActualizadoSource: CelesTrak SupGP

Época: Sep 14, 2026, 16:38 UTC

1 49001C 21060AL  26257.69324491  .00001553  00000+0  40667-2 0  2578
2 49001  87.9157 211.0062 0002183  76.6726 318.9089 13.16593161    18

Sigue ONEWEB-0283 en tiempo real con AllMySat

Download on the App Store